CDT,Max TemperatureF,Mean TemperatureF,Min TemperatureF,Max Dew PointF,MeanDew PointF,Min DewpointF,Max Humidity, Mean Humidity, Min Humidity, Max Sea Level PressureIn, Mean Sea Level PressureIn, Min Sea Level PressureIn, Max VisibilityMiles, Mean VisibilityMiles, Min VisibilityMiles, Max Wind SpeedMPH, Mean Wind SpeedMPH, Max Gust SpeedMPH,PrecipitationIn, CloudCover, Events, WindDirDegrees
2011-7-1,97,87,78,72,67,49,99,99,99,29.92,29.91,29.89,10,10,10,14,9,,0.00,0,,230
2011-7-2,87,81,75,70,68,66,76,60,52,30.07,30.06,30.04,10,10,10,13,9,,0.00,0,,339
2011-7-3,80,73,69,66,64,62,99,99,99,30.15,30.04,29.98,10,8,1,16,11,22,0.00,5,Rain-Thunderstorm,352
2011-7-4,89,80,71,69,66,62,81,62,40,29.99,29.98,29.91,10,10,8,9,5,,0.00,4,,93
2011-7-5,91,82,73,70,68,61,81,57,44,30.01,29.98,29.93,10,10,8,6,3,,0.00,1,,132
2011-7-6,86,80,73,74,70,68,87,74,61,30.07,30.02,29.96,10,10,8,9,4,,0.00,2,,340
2011-7-7,84,78,73,72,69,64,87,74,61,29.95,29.90,29.85,10,5,1,6,2,,0.00,7,Rain-Thunderstorm,124
2011-7-8,90,81,75,68,66,63,69,58,47,29.93,29.91,29.87,10,8,1,10,3,,0.00,1,,17
2011-7-9,89,82,74,72,69,64,79,66,52,29.91,29.86,29.81,8,7,6,17,14,,0.00,2,,179
2011-7-10,88,83,78,79,74,70,76,71,65,29.82,29.80,29.77,10,10,10,9,7,,0.00,0,,274
2011-7-11,99,90,80,78,72,66,69,56,42,29.94,29.91,29.88,10,10,10,14,7,,0.00,4,Thunderstorm,182
2011-7-12,99,90,80,74,72,70,74,57,39,29.94,29.91,29.86,10,10,10,9,4,,0.00,1,Thunderstorm,94
2011-7-13,84,78,71,71,69,66,84,73,61,30.02,29.99,29.90,10,8,6,9,6,,0.00,6,,42
2011-7-14,93,82,73,75,71,66,84,68,52,29.93,29.90,29.84,10,8,5,9,7,,0.00,5,,150
2011-7-15,96,87,78,76,73,69,79,64,49,29.90,29.87,29.82,10,10,10,12,9,,0.00,0,,165
2011-7-16,98,88,78,79,76,73,85,69,53,29.95,29.94,29.94,10,10,10,12,7,,0.00,2,,167
2011-7-17,91,88,84,72,71,69,65,57,49,30.09,30.07,30.06,10,10,10,9,8,,0.00,0,,197
2011-7-18,99,90,82,76,72,69,67,50,42,30.09,30.06,30.01,10,10,10,9,7,,0.00,0,,193
2011-7-19,100,86,80,73,71,70,79,53,39,30.00,29.96,29.87,10,10,10,12,6,,0.00,0,,191
2011-7-20,99,90,82,73,70,66,67,48,38,29.87,29.83,29.78,10,10,10,15,11,,0.00,0,,204
2011-7-21,100,90,81,76,72,68,65,46,40,29.88,29.82,29.75,10,10,10,7,3,,0.00,0,,189
2011-7-22,102,90,79,75,71,62,59,47,35,29.85,29.82,29.76,10,10,10,12,8,,0.00,0,,178
2011-7-23,100,96,91,73,71,70,56,48,40,29.90,29.89,29.87,10,10,10,13,9,,0.00,0,,200
2011-7-24,91,80,73,72,69,65,76,63,52,30.01,29.98,29.93,10,10,10,12,8,,0.00,3,Rain-Thunderstorm,116
2011-7-25,97,84,73,75,72,69,87,66,45,30.02,29.97,29.87,10,10,10,9,4,,0.00,0,,207
2011-7-26,97,88,80,73,72,70,79,61,42,29.88,29.83,29.73,10,10,10,9,6,,0.00,0,,188
2011-7-27,100,90,80,72,70,65,60,47,37,29.78,29.72,29.69,10,10,10,17,10,,0.00,1,,182
2011-7-28,93,85,77,79,74,70,83,67,55,29.99,29.91,29.86,10,10,10,12,6,,0.00,2,Thunderstorm,265
2011-7-29,89,81,73,74,72,70,87,76,61,30.06,30.04,30.01,10,10,10,6,4,,0.00,6,Rain-Thunderstorm,337
2011-7-30,90,82,73,75,72,68,90,68,55,30.09,30.05,30.01,10,10,5,7,4,,0.00,5,,241
2011-7-31,95,88,80,76,74,73,79,64,49,30.09,30.07,30.03,10,10,10,9,6,,0.00,0,,233